Location: Molveno
(46.1500°N, 10.9667°E)
Time: 07:52:16
(UTC+00:00)

Cosmos 2218 Rocket - Pass Details

Date: 05 July 2020
Orbit: 955 x 1007 km, 82.9° (Epoch: 05 August)

Event Time Altitude Azimuth Distance (km) Brightness Sun altitude
Exits shadow 22:50:54 38° 174° (S) 1,481 4.4 -20.8°
Maximum altitude 22:53:31 77° 96° (E) 1,025 4.0 -20.9°
Drops below altitude 10° 22:59:50 10° 11° (NNE) 2,755 7.4 -21.0°
Sets 23:02:21 0° 10° (N) 3,699 8.4 -21.1°
